Time,TemperatureF,DewpointF,PressureIn,WindDirection,WindDirectionDegrees,WindSpeedMPH,WindSpeedGustMPH,Humidity,HourlyPrecipIn,Conditions,Clouds,dailyrainin,SoftwareType,DateUTC
2013-07-31 00:05:00,62.0,55.8,30.01,West,265,0.0,0.0,80,0.00,,,0.00,Wunderground v.1.15,2013-07-31 07:05:00,
2013-07-31 00:15:00,61.8,55.6,30.01,West,265,0.0,0.0,80,0.00,,,0.00,Wunderground v.1.15,2013-07-31 07:15:00,
2013-07-31 00:20:00,61.6,55.4,30.01,West,265,0.0,0.0,80,0.00,,,0.00,Wunderground v.1.15,2013-07-31 07:20:00,
2013-07-31 00:30:00,61.5,55.6,30.00,West,265,0.0,0.0,81,0.00,,,0.00,Wunderground v.1.15,2013-07-31 07:30:00,
2013-07-31 00:35:00,61.3,55.4,30.00,West,265,0.0,0.0,81,0.00,,,0.00,Wunderground v.1.15,2013-07-31 07:35:00,
2013-07-31 00:45:00,61.2,55.3,30.00,West,265,0.0,0.0,81,0.00,,,0.00,Wunderground v.1.15,2013-07-31 07:45:00,
2013-07-31 00:50:00,61.2,55.7,30.00,West,265,0.0,0.0,82,0.00,,,0.00,Wunderground v.1.15,2013-07-31 07:50:00,
2013-07-31 01:00:00,61.0,55.5,30.00,West,265,0.0,0.0,82,0.00,,,0.00,Wunderground v.1.15,2013-07-31 08:00:00,
2013-07-31 01:10:00,61.0,55.5,30.00,West,265,0.0,0.0,82,0.00,,,0.00,Wunderground v.1.15,2013-07-31 08:10:00,
2013-07-31 01:15:00,60.9,55.4,30.00,West,265,0.0,0.0,82,0.00,,,0.00,Wunderground v.1.15,2013-07-31 08:15:00,
2013-07-31 01:25:00,60.9,55.7,30.00,West,265,0.0,0.0,83,0.00,,,0.00,Wunderground v.1.15,2013-07-31 08:25:00,
2013-07-31 01:35:00,60.7,55.5,30.00,West,265,0.0,0.0,83,0.00,,,0.00,Wunderground v.1.15,2013-07-31 08:35:00,
2013-07-31 01:45:00,60.5,55.3,30.00,West,265,0.0,0.0,83,0.00,,,0.00,Wunderground v.1.15,2013-07-31 08:45:00,
2013-07-31 01:50:00,60.5,55.3,30.00,West,265,0.0,0.0,83,0.00,,,0.00,Wunderground v.1.15,2013-07-31 08:50:00,
2013-07-31 02:00:00,60.4,55.2,30.00,West,265,0.0,0.0,83,0.00,,,0.00,Wunderground v.1.15,2013-07-31 09:00:00,
2013-07-31 02:05:00,60.4,55.5,30.00,West,265,0.0,0.0,84,0.00,,,0.00,Wunderground v.1.15,2013-07-31 09:05:00,
2013-07-31 02:15:00,60.2,55.3,29.99,West,265,0.0,0.0,84,0.00,,,0.00,Wunderground v.1.15,2013-07-31 09:15:00,
2013-07-31 02:25:00,60.1,55.2,29.99,West,265,0.0,0.0,84,0.00,,,0.00,Wunderground v.1.15,2013-07-31 09:25:00,
2013-07-31 02:30:00,60.1,55.2,29.99,West,265,0.0,0.0,84,0.00,,,0.00,Wunderground v.1.15,2013-07-31 09:30:00,
2013-07-31 02:40:00,59.8,55.0,29.99,West,265,0.0,0.0,84,0.00,,,0.00,Wunderground v.1.15,2013-07-31 09:40:00,
2013-07-31 02:50:00,59.8,55.3,29.99,West,265,0.0,0.0,85,0.00,,,0.00,Wunderground v.1.15,2013-07-31 09:50:00,
2013-07-31 03:00:00,59.6,55.1,29.99,West,265,0.0,0.0,85,0.00,,,0.00,Wunderground v.1.15,2013-07-31 10:00:00,
2013-07-31 03:05:00,59.6,55.1,29.99,West,265,0.0,0.0,85,0.00,,,0.00,Wunderground v.1.15,2013-07-31 10:05:00,
2013-07-31 03:15:00,59.5,55.0,29.99,West,265,0.0,0.0,85,0.00,,,0.00,Wunderground v.1.15,2013-07-31 10:15:00,
2013-07-31 03:25:00,59.3,54.8,29.99,West,265,0.0,0.0,85,0.00,,,0.00,Wunderground v.1.15,2013-07-31 10:25:00,
2013-07-31 03:30:00,59.3,55.1,29.99,West,265,0.0,0.0,86,0.00,,,0.00,Wunderground v.1.15,2013-07-31 10:30:00,
2013-07-31 03:40:00,59.2,55.0,29.99,West,265,0.0,0.0,86,0.00,,,0.00,Wunderground v.1.15,2013-07-31 10:40:00,
2013-07-31 03:50:00,59.0,54.8,29.99,West,265,0.0,0.0,86,0.00,,,0.00,Wunderground v.1.15,2013-07-31 10:50:00,
2013-07-31 03:55:00,59.0,54.8,29.99,West,265,0.0,0.0,86,0.00,,,0.00,Wunderground v.1.15,2013-07-31 10:55:00,
2013-07-31 04:00:00,59.0,54.8,29.99,West,265,0.0,0.0,86,0.00,,,0.00,Wunderground v.1.15,2013-07-31 11:00:00,
2013-07-31 04:10:00,58.9,55.0,29.99,West,265,0.0,0.0,87,0.00,,,0.00,Wunderground v.1.15,2013-07-31 11:10:00,
2013-07-31 04:15:00,58.9,55.0,29.99,West,265,0.0,0.0,87,0.00,,,0.00,Wunderground v.1.15,2013-07-31 11:15:00,
2013-07-31 04:25:00,58.9,55.0,29.99,West,265,0.0,0.0,87,0.00,,,0.00,Wunderground v.1.15,2013-07-31 11:25:00,
2013-07-31 04:35:00,58.9,55.4,29.99,West,265,0.0,0.0,88,0.00,,,0.00,Wunderground v.1.15,2013-07-31 11:35:00,
2013-07-31 04:45:00,59.3,55.7,30.00,West,265,0.0,0.0,88,0.00,,,0.00,Wunderground v.1.15,2013-07-31 11:45:00,
2013-07-31 04:55:00,60.1,56.8,30.00,West,265,0.0,0.0,89,0.00,,,0.00,Wunderground v.1.15,2013-07-31 11:55:00,
2013-07-31 05:00:00,60.2,56.9,30.00,West,265,0.0,0.0,89,0.00,,,0.00,Wunderground v.1.15,2013-07-31 12:00:00,
2013-07-31 05:10:00,60.4,57.1,30.00,West,265,0.0,0.0,89,0.00,,,0.00,Wunderground v.1.15,2013-07-31 12:10:00,
2013-07-31 05:20:00,60.4,57.1,30.00,West,265,0.0,0.0,89,0.00,,,0.00,Wunderground v.1.15,2013-07-31 12:20:00,
2013-07-31 05:25:00,60.4,57.1,30.00,West,265,0.0,0.0,89,0.00,,,0.00,Wunderground v.1.15,2013-07-31 12:25:00,
2013-07-31 05:35:00,60.7,57.1,30.00,West,265,0.0,0.0,88,0.00,,,0.00,Wunderground v.1.15,2013-07-31 12:35:00,
2013-07-31 05:45:00,60.7,57.1,30.00,West,265,0.0,0.0,88,0.00,,,0.00,Wunderground v.1.15,2013-07-31 12:45:00,
2013-07-31 05:50:00,60.7,57.1,30.00,West,265,0.0,0.0,88,0.00,,,0.00,Wunderground v.1.15,2013-07-31 12:50:00,
2013-07-31 06:00:00,60.9,57.3,30.01,West,265,0.0,0.0,88,0.00,,,0.00,Wunderground v.1.15,2013-07-31 13:00:00,
2013-07-31 06:10:00,61.0,57.4,30.01,West,265,0.0,0.0,88,0.00,,,0.00,Wunderground v.1.15,2013-07-31 13:10:00,
2013-07-31 06:20:00,61.2,57.3,30.01,West,265,0.0,0.0,87,0.00,,,0.00,Wunderground v.1.15,2013-07-31 13:20:00,
2013-07-31 06:25:00,61.2,57.3,30.01,West,265,0.0,0.0,87,0.00,,,0.00,Wunderground v.1.15,2013-07-31 13:25:00,
2013-07-31 06:35:00,61.2,57.3,30.01,West,265,0.0,0.0,87,0.00,,,0.00,Wunderground v.1.15,2013-07-31 13:35:00,
2013-07-31 06:45:00,61.2,57.0,30.02,West,265,0.0,0.0,86,0.00,,,0.00,Wunderground v.1.15,2013-07-31 13:45:00,
2013-07-31 06:50:00,61.3,57.1,30.02,West,265,0.0,0.0,86,0.00,,,0.00,Wunderground v.1.15,2013-07-31 13:50:00,
2013-07-31 07:00:00,61.5,57.3,30.02,West,265,0.0,0.0,86,0.00,,,0.00,Wunderground v.1.15,2013-07-31 14:00:00,
2013-07-31 07:10:00,61.6,57.0,30.02,West,265,0.0,0.0,85,0.00,,,0.00,Wunderground v.1.15,2013-07-31 14:10:00,
2013-07-31 07:15:00,61.6,57.0,30.02,West,265,0.0,0.0,85,0.00,,,0.00,Wunderground v.1.15,2013-07-31 14:15:00,
2013-07-31 07:25:00,61.8,56.9,30.02,West,265,0.0,0.0,84,0.00,,,0.00,Wunderground v.1.15,2013-07-31 14:25:00,
2013-07-31 07:35:00,62.1,57.2,30.02,West,265,0.0,0.0,84,0.00,,,0.00,Wunderground v.1.15,2013-07-31 14:35:00,
2013-07-31 07:40:00,62.1,57.2,30.02,West,265,0.0,0.0,84,0.00,,,0.00,Wunderground v.1.15,2013-07-31 14:40:00,
2013-07-31 07:45:00,62.3,57.4,30.02,West,265,0.0,0.0,84,0.00,,,0.00,Wunderground v.1.15,2013-07-31 14:45:00,
2013-07-31 07:55:00,62.4,57.2,30.02,West,265,0.0,0.0,83,0.00,,,0.00,Wunderground v.1.15,2013-07-31 14:55:00,
2013-07-31 08:00:00,62.6,57.4,30.03,West,265,0.0,0.0,83,0.00,,,0.00,Wunderground v.1.15,2013-07-31 15:00:00,
2013-07-31 08:10:00,62.7,56.8,30.03,West,265,0.0,0.0,81,0.00,,,0.00,Wunderground v.1.15,2013-07-31 15:10:00,
2013-07-31 08:15:00,62.7,56.8,30.03,West,265,0.0,0.0,81,0.00,,,0.00,Wunderground v.1.15,2013-07-31 15:15:00,
2013-07-31 08:25:00,62.9,56.6,30.03,West,265,0.0,0.0,80,0.00,,,0.00,Wunderground v.1.15,2013-07-31 15:25:00,
2013-07-31 08:35:00,63.1,56.8,30.03,West,265,0.0,0.0,80,0.00,,,0.00,Wunderground v.1.15,2013-07-31 15:35:00,
2013-07-31 08:45:00,63.2,56.9,30.03,West,265,0.0,0.0,80,0.00,,,0.00,Wunderground v.1.15,2013-07-31 15:45:00,
2013-07-31 08:50:00,63.4,56.8,30.03,West,265,0.0,0.0,79,0.00,,,0.00,Wunderground v.1.15,2013-07-31 15:50:00,
2013-07-31 09:00:00,63.5,56.9,30.03,West,265,0.0,0.0,79,0.00,,,0.00,Wunderground v.1.15,2013-07-31 16:00:00,
2013-07-31 09:10:00,63.7,57.1,30.03,West,265,0.0,0.0,79,0.00,,,0.00,Wunderground v.1.15,2013-07-31 16:10:00,
2013-07-31 09:15:00,63.9,57.3,30.03,West,265,0.0,0.0,79,0.00,,,0.00,Wunderground v.1.15,2013-07-31 16:15:00,
2013-07-31 09:25:00,64.2,57.5,30.03,West,265,0.0,0.0,79,0.00,,,0.00,Wunderground v.1.15,2013-07-31 16:25:00,
2013-07-31 09:35:00,64.5,57.5,30.03,West,265,0.0,0.0,78,0.00,,,0.00,Wunderground v.1.15,2013-07-31 16:35:00,
2013-07-31 09:40:00,64.7,57.3,30.03,West,265,0.0,0.0,77,0.00,,,0.00,Wunderground v.1.15,2013-07-31 16:40:00,
2013-07-31 09:50:00,65.0,57.6,30.03,West,265,0.0,0.0,77,0.00,,,0.00,Wunderground v.1.15,2013-07-31 16:50:00,
2013-07-31 10:00:00,65.3,57.5,30.03,West,265,0.0,0.0,76,0.00,,,0.00,Wunderground v.1.15,2013-07-31 17:00:00,
2013-07-31 10:05:00,65.5,57.7,30.03,West,265,0.0,0.0,76,0.00,,,0.00,Wunderground v.1.15,2013-07-31 17:05:00,
2013-07-31 10:15:00,65.6,57.8,30.02,West,265,0.0,0.0,76,0.00,,,0.00,Wunderground v.1.15,2013-07-31 17:15:00,
2013-07-31 10:25:00,66.0,57.8,30.02,West,265,0.0,0.0,75,0.00,,,0.00,Wunderground v.1.15,2013-07-31 17:25:00,
2013-07-31 10:35:00,66.0,57.5,30.03,WSW,246,0.0,0.0,74,0.00,,,0.00,Wunderground v.1.15,2013-07-31 17:35:00,
2013-07-31 10:40:00,66.1,57.9,30.03,WSW,253,0.0,0.0,75,0.00,,,0.00,Wunderground v.1.15,2013-07-31 17:40:00,
2013-07-31 10:50:00,66.3,57.8,30.03,WSW,253,0.0,0.0,74,0.00,,,0.00,Wunderground v.1.15,2013-07-31 17:50:00,
2013-07-31 11:00:00,66.9,58.0,30.03,WSW,253,0.0,0.0,73,0.00,,,0.00,Wunderground v.1.15,2013-07-31 18:00:00,
2013-07-31 11:10:00,67.8,58.1,30.03,WSW,253,0.0,0.0,71,0.00,,,0.00,Wunderground v.1.15,2013-07-31 18:10:00,
2013-07-31 11:15:00,68.1,57.9,30.03,WSW,241,0.0,2.0,70,0.00,,,0.00,Wunderground v.1.15,2013-07-31 18:15:00,
2013-07-31 11:25:00,68.6,58.0,30.03,WSW,241,0.0,1.0,69,0.00,,,0.00,Wunderground v.1.15,2013-07-31 18:25:00,
2013-07-31 11:30:00,69.8,58.8,30.02,WSW,257,0.0,3.0,68,0.00,,,0.00,Wunderground v.1.15,2013-07-31 18:30:00,
2013-07-31 11:40:00,70.8,58.4,30.02,WSW,247,1.0,1.0,65,0.00,,,0.00,Wunderground v.1.15,2013-07-31 18:40:00,
2013-07-31 11:50:00,71.3,58.5,30.01,WNW,291,0.0,0.0,64,0.00,,,0.00,Wunderground v.1.15,2013-07-31 18:50:00,
2013-07-31 12:00:00,71.8,58.1,30.00,West,270,1.0,1.0,62,0.00,,,0.00,Wunderground v.1.15,2013-07-31 19:00:00,
2013-07-31 12:10:00,73.5,58.3,30.00,South,172,0.0,0.0,59,0.00,,,0.00,Wunderground v.1.15,2013-07-31 19:10:00,
2013-07-31 12:15:00,74.7,58.0,30.00,West,263,0.0,0.0,56,0.00,,,0.00,Wunderground v.1.15,2013-07-31 19:15:00,
2013-07-31 12:20:00,75.3,58.0,30.00,WSW,257,1.0,1.0,55,0.00,,,0.00,Wunderground v.1.15,2013-07-31 19:20:00,
2013-07-31 12:30:00,75.3,58.5,30.00,SW,222,1.0,1.0,56,0.00,,,0.00,Wunderground v.1.15,2013-07-31 19:30:00,
2013-07-31 12:35:00,75.4,59.1,30.00,East,90,1.0,1.0,57,0.00,,,0.00,Wunderground v.1.15,2013-07-31 19:35:00,
2013-07-31 12:45:00,76.3,58.9,29.99,West,270,1.0,2.0,55,0.00,,,0.00,Wunderground v.1.15,2013-07-31 19:45:00,
2013-07-31 12:50:00,76.0,59.2,29.99,SW,216,2.0,5.0,56,0.00,,,0.00,Wunderground v.1.15,2013-07-31 19:50:00,
2013-07-31 13:00:00,75.4,58.6,29.99,West,271,2.0,5.0,56,0.00,,,0.00,Wunderground v.1.15,2013-07-31 20:00:00,
2013-07-31 13:10:00,75.3,59.0,29.99,WNW,296,2.0,2.0,57,0.00,,,0.00,Wunderground v.1.15,2013-07-31 20:10:00,
2013-07-31 13:20:00,75.4,58.1,29.99,WSW,251,2.0,2.0,55,0.00,,,0.00,Wunderground v.1.15,2013-07-31 20:20:00,
2013-07-31 13:25:00,75.4,58.1,29.99,SW,232,2.0,2.0,55,0.00,,,0.00,Wunderground v.1.15,2013-07-31 20:25:00,
2013-07-31 13:35:00,75.3,58.5,29.99,WSW,244,1.0,2.0,56,0.00,,,0.00,Wunderground v.1.15,2013-07-31 20:35:00,
2013-07-31 13:40:00,75.3,58.5,29.99,West,270,1.0,2.0,56,0.00,,,0.00,Wunderground v.1.15,2013-07-31 20:40:00,
2013-07-31 13:50:00,76.5,58.6,29.98,West,267,1.0,5.0,54,0.00,,,0.00,Wunderground v.1.15,2013-07-31 20:50:00,
2013-07-31 14:00:00,75.1,59.8,29.97,WSW,240,3.0,7.0,59,0.00,,,0.00,Wunderground v.1.15,2013-07-31 21:00:00,
2013-07-31 14:10:00,75.1,59.3,29.97,West,268,2.0,2.0,58,0.00,,,0.00,Wunderground v.1.15,2013-07-31 21:10:00,
2013-07-31 14:20:00,75.4,58.1,29.97,NW,311,2.0,2.0,55,0.00,,,0.00,Wunderground v.1.15,2013-07-31 21:20:00,
2013-07-31 14:25:00,76.0,58.7,29.97,West,271,1.0,3.0,55,0.00,,,0.00,Wunderground v.1.15,2013-07-31 21:25:00,
2013-07-31 14:35:00,77.4,57.9,29.97,WNW,289,1.0,1.0,51,0.00,,,0.00,Wunderground v.1.15,2013-07-31 21:35:00,
2013-07-31 14:45:00,77.4,59.5,29.97,WSW,256,1.0,4.0,54,0.00,,,0.00,Wunderground v.1.15,2013-07-31 21:45:00,
2013-07-31 14:50:00,76.7,58.8,29.97,SW,215,2.0,2.0,54,0.00,,,0.00,Wunderground v.1.15,2013-07-31 21:50:00,
2013-07-31 15:00:00,76.8,58.9,29.96,SW,234,2.0,2.0,54,0.00,,,0.00,Wunderground v.1.15,2013-07-31 22:00:00,
2013-07-31 15:10:00,76.3,59.4,29.96,WNW,291,2.0,2.0,56,0.00,,,0.00,Wunderground v.1.15,2013-07-31 22:10:00,
2013-07-31 15:15:00,76.3,57.9,29.96,SW,230,1.0,2.0,53,0.00,,,0.00,Wunderground v.1.15,2013-07-31 22:15:00,
2013-07-31 15:25:00,75.8,58.5,29.96,SW,226,1.0,2.0,55,0.00,,,0.00,Wunderground v.1.15,2013-07-31 22:25:00,
2013-07-31 15:35:00,76.3,57.9,29.95,West,268,1.0,3.0,53,0.00,,,0.00,Wunderground v.1.15,2013-07-31 22:35:00,
2013-07-31 15:40:00,76.3,57.9,29.95,SSW,198,1.0,2.0,53,0.00,,,0.00,Wunderground v.1.15,2013-07-31 22:40:00,
2013-07-31 15:50:00,75.4,58.1,29.95,WSW,244,2.0,3.0,55,0.00,,,0.00,Wunderground v.1.15,2013-07-31 22:50:00,
2013-07-31 15:55:00,75.4,58.1,29.95,SW,223,2.0,3.0,55,0.00,,,0.00,Wunderground v.1.15,2013-07-31 22:55:00,
2013-07-31 16:05:00,75.8,58.0,29.94,WSW,246,2.0,2.0,54,0.00,,,0.00,Wunderground v.1.15,2013-07-31 23:05:00,
2013-07-31 16:10:00,75.6,58.3,29.94,WSW,241,3.0,3.0,55,0.00,,,0.00,Wunderground v.1.15,2013-07-31 23:10:00,
2013-07-31 16:15:00,75.4,58.1,29.94,SW,229,2.0,3.0,55,0.00,,,0.00,Wunderground v.1.15,2013-07-31 23:15:00,
2013-07-31 16:25:00,75.8,58.5,29.94,WSW,253,2.0,3.0,55,0.00,,,0.00,Wunderground v.1.15,2013-07-31 23:25:00,
2013-07-31 16:35:00,75.1,57.8,29.94,West,261,2.0,2.0,55,0.00,,,0.00,Wunderground v.1.15,2013-07-31 23:35:00,
2013-07-31 16:40:00,74.9,58.1,29.94,West,267,1.0,3.0,56,0.00,,,0.00,Wunderground v.1.15,2013-07-31 23:40:00,
2013-07-31 16:50:00,74.7,58.5,29.93,WSW,244,1.0,1.0,57,0.00,,,0.00,Wunderground v.1.15,2013-07-31 23:50:00,
2013-07-31 16:55:00,74.0,58.3,29.93,WSW,248,2.0,2.0,58,0.00,,,0.00,Wunderground v.1.15,2013-07-31 23:55:00,
2013-07-31 17:05:00,73.0,57.8,29.93,WSW,237,2.0,5.0,59,0.00,,,0.00,Wunderground v.1.15,2013-08-01 00:05:00,
2013-07-31 17:15:00,72.5,57.8,29.93,West,267,1.0,3.0,60,0.00,,,0.00,Wunderground v.1.15,2013-08-01 00:15:00,
2013-07-31 17:20:00,72.3,58.1,29.93,SW,233,1.0,4.0,61,0.00,,,0.00,Wunderground v.1.15,2013-08-01 00:20:00,
2013-07-31 17:30:00,71.8,57.2,29.92,West,268,1.0,3.0,60,0.00,,,0.00,Wunderground v.1.15,2013-08-01 00:30:00,
2013-07-31 17:40:00,71.5,57.8,29.92,West,268,2.0,2.0,62,0.00,,,0.00,Wunderground v.1.15,2013-08-01 00:40:00,
2013-07-31 17:45:00,71.5,57.3,29.92,WSW,253,1.0,2.0,61,0.00,,,0.00,Wunderground v.1.15,2013-08-01 00:45:00,
2013-07-31 17:55:00,70.8,57.1,29.92,WSW,256,2.0,2.0,62,0.00,,,0.00,Wunderground v.1.15,2013-08-01 00:55:00,
2013-07-31 18:05:00,69.8,57.1,29.93,West,261,2.0,3.0,64,0.00,,,0.00,Wunderground v.1.15,2013-08-01 01:05:00,
2013-07-31 18:15:00,69.4,57.5,29.92,SW,230,1.0,2.0,66,0.00,,,0.00,Wunderground v.1.15,2013-08-01 01:15:00,
2013-07-31 18:20:00,69.1,57.7,29.92,West,267,2.0,6.0,67,0.00,,,0.00,Wunderground v.1.15,2013-08-01 01:20:00,
2013-07-31 18:30:00,68.4,57.4,29.92,SSW,199,2.0,2.0,68,0.00,,,0.00,Wunderground v.1.15,2013-08-01 01:30:00,
2013-07-31 18:40:00,67.8,57.3,29.92,SW,217,2.0,2.0,69,0.00,,,0.00,Wunderground v.1.15,2013-08-01 01:40:00,
2013-07-31 18:45:00,67.4,56.9,29.93,West,264,2.0,2.0,69,0.00,,,0.00,Wunderground v.1.15,2013-08-01 01:45:00,
2013-07-31 18:55:00,67.3,57.2,29.93,WSW,253,1.0,2.0,70,0.00,,,0.00,Wunderground v.1.15,2013-08-01 01:55:00,
2013-07-31 19:00:00,67.1,57.4,29.93,West,272,1.0,1.0,71,0.00,,,0.00,Wunderground v.1.15,2013-08-01 02:00:00,
2013-07-31 19:10:00,66.4,56.7,29.93,SSW,206,1.0,1.0,71,0.00,,,0.00,Wunderground v.1.15,2013-08-01 02:10:00,
2013-07-31 19:20:00,66.1,56.8,29.93,West,263,1.0,1.0,72,0.00,,,0.00,Wunderground v.1.15,2013-08-01 02:20:00,
2013-07-31 19:30:00,65.6,57.1,29.93,WSW,247,1.0,2.0,74,0.00,,,0.00,Wunderground v.1.15,2013-08-01 02:30:00,
2013-07-31 19:40:00,65.2,56.7,29.93,SW,234,1.0,1.0,74,0.00,,,0.00,Wunderground v.1.15,2013-08-01 02:40:00,
2013-07-31 19:45:00,65.0,56.9,29.94,West,263,1.0,5.0,75,0.00,,,0.00,Wunderground v.1.15,2013-08-01 02:45:00,
2013-07-31 19:55:00,64.7,57.0,29.94,SW,220,1.0,1.0,76,0.00,,,0.00,Wunderground v.1.15,2013-08-01 02:55:00,
2013-07-31 20:00:00,64.5,56.8,29.94,WSW,253,0.0,1.0,76,0.00,,,0.00,Wunderground v.1.15,2013-08-01 03:00:00,
2013-07-31 20:10:00,64.0,56.3,29.94,WSW,244,0.0,0.0,76,0.00,,,0.00,Wunderground v.1.15,2013-08-01 03:10:00,
2013-07-31 20:20:00,63.9,56.9,29.94,WSW,251,0.0,0.0,78,0.00,,,0.00,Wunderground v.1.15,2013-08-01 03:20:00,
2013-07-31 20:30:00,63.9,56.9,29.94,WSW,247,0.0,1.0,78,0.00,,,0.00,Wunderground v.1.15,2013-08-01 03:30:00,
2013-07-31 20:35:00,63.7,56.7,29.94,WSW,247,0.0,1.0,78,0.00,,,0.00,Wunderground v.1.15,2013-08-01 03:35:00,
2013-07-31 20:45:00,63.5,56.5,29.94,WSW,244,0.0,1.0,78,0.00,,,0.00,Wunderground v.1.15,2013-08-01 03:45:00,
2013-07-31 20:55:00,63.4,56.8,29.94,WSW,250,0.0,0.0,79,0.00,,,0.00,Wunderground v.1.15,2013-08-01 03:55:00,
2013-07-31 21:00:00,63.5,56.9,29.94,WSW,251,0.0,0.0,79,0.00,,,0.00,Wunderground v.1.15,2013-08-01 04:00:00,
2013-07-31 21:05:00,63.5,56.9,29.94,WSW,253,0.0,0.0,79,0.00,,,0.00,Wunderground v.1.15,2013-08-01 04:05:00,
2013-07-31 21:10:00,63.5,56.9,29.94,WSW,253,0.0,0.0,79,0.00,,,0.00,Wunderground v.1.15,2013-08-01 04:10:00,
2013-07-31 21:15:00,63.5,56.9,29.95,WSW,253,0.0,0.0,79,0.00,,,0.00,Wunderground v.1.15,2013-08-01 04:15:00,
2013-07-31 21:25:00,63.5,56.9,29.95,WSW,253,0.0,0.0,79,0.00,,,0.00,Wunderground v.1.15,2013-08-01 04:25:00,
2013-07-31 21:35:00,63.5,56.9,29.95,WSW,253,0.0,0.0,79,0.00,,,0.00,Wunderground v.1.15,2013-08-01 04:35:00,
2013-07-31 21:40:00,63.5,56.9,29.95,WSW,253,0.0,0.0,79,0.00,,,0.00,Wunderground v.1.15,2013-08-01 04:40:00,
2013-07-31 21:45:00,63.4,56.8,29.95,WSW,253,0.0,0.0,79,0.00,,,0.00,Wunderground v.1.15,2013-08-01 04:45:00,
2013-07-31 21:55:00,63.4,56.8,29.95,WNW,287,0.0,0.0,79,0.00,,,0.00,Wunderground v.1.15,2013-08-01 04:55:00,
2013-07-31 22:00:00,63.5,57.2,29.95,WNW,287,0.0,0.0,80,0.00,,,0.00,Wunderground v.1.15,2013-08-01 05:00:00,
2013-07-31 22:10:00,63.2,56.9,29.95,SW,229,0.0,0.0,80,0.00,,,0.00,Wunderground v.1.15,2013-08-01 05:10:00,
2013-07-31 22:15:00,63.2,56.9,29.95,WSW,240,0.0,0.0,80,0.00,,,0.00,Wunderground v.1.15,2013-08-01 05:15:00,
2013-07-31 22:25:00,63.1,56.8,29.95,NW,320,0.0,0.0,80,0.00,,,0.00,Wunderground v.1.15,2013-08-01 05:25:00,
2013-07-31 22:35:00,63.1,56.8,29.95,NW,316,0.0,0.0,80,0.00,,,0.00,Wunderground v.1.15,2013-08-01 05:35:00,
2013-07-31 22:40:00,62.9,56.6,29.95,NW,305,0.0,0.0,80,0.00,,,0.00,Wunderground v.1.15,2013-08-01 05:40:00,
2013-07-31 22:50:00,62.9,56.6,29.95,WNW,296,0.0,0.0,80,0.00,,,0.00,Wunderground v.1.15,2013-08-01 05:50:00,
2013-07-31 22:55:00,62.9,56.6,29.95,WSW,254,0.0,2.0,80,0.00,,,0.00,Wunderground v.1.15,2013-08-01 05:55:00,
2013-07-31 23:05:00,62.6,56.7,29.95,WSW,258,0.0,0.0,81,0.00,,,0.00,Wunderground v.1.15,2013-08-01 06:05:00,
2013-07-31 23:15:00,62.6,57.0,29.94,WSW,258,0.0,0.0,82,0.00,,,0.00,Wunderground v.1.15,2013-08-01 06:15:00,
2013-07-31 23:20:00,62.7,57.1,29.94,WSW,258,0.0,0.0,82,0.00,,,0.00,Wunderground v.1.15,2013-08-01 06:20:00,
2013-07-31 23:30:00,62.4,56.8,29.94,WSW,258,0.0,0.0,82,0.00,,,0.00,Wunderground v.1.15,2013-08-01 06:30:00,
2013-07-31 23:40:00,62.4,56.8,29.94,WSW,258,0.0,0.0,82,0.00,,,0.00,Wunderground v.1.15,2013-08-01 06:40:00,
2013-07-31 23:45:00,62.4,57.2,29.94,WSW,258,0.0,0.0,83,0.00,,,0.00,Wunderground v.1.15,2013-08-01 06:45:00,
2013-07-31 23:55:00,62.4,56.8,29.94,WSW,258,0.0,0.0,82,0.00,,,0.00,Wunderground v.1.15,2013-08-01 06:55:00,